Theta_e
317 315 315 316 317 318 320 319 320 321 322 321 321 326 326 325 327 329 332 334 336 337 336 332 329 330 329 329 328 331 332 334 333 339 338 340 341 343 346 345 347 346 347 346
318 315 317 319 319 320 321 322 320 321 321 322 320 320 321 321 323 323 325 327 327 337 337 334 331 330 330 329 329 329 330 334 334 334 340 339 340 342 344 345 346 346 345 346
317 320 321 321 322 323 323 322 320 320 321 321 322 320 321 321 322 323 324 327 326 331 338 336 334 333 330 332 330 329 330 330 334 335 339 341 343 341 341 345 345 344 347 346
317 320 323 323 323 322 322 321 321 321 321 320 323 321 321 323 320 322 322 323 329 335 337 338 338 336 334 331 332 330 329 330 332 336 336 338 340 342 344 343 344 343 343 349
323 322 323 323 323 322 319 322 324 325 322 323 322 321 321 323 323 322 325 330 332 336 340 341 340 343 342 340 336 334 331 330 331 333 339 340 339 339 339 341 343 343 343 343
326 325 326 324 324 322 322 324 325 325 321 321 321 323 321 324 329 332 332 332 336 339 339 339 341 342 343 343 344 341 338 335 336 336 335 337 340 340 341 341 341 341 342 342
326 326 325 325 323 322 323 323 322 325 323 325 327 329 321 331 333 334 335 336 336 338 338 338 340 342 342 340 339 341 348 342 339 337 339 338 335 337 340 338 339 339 340 345
327 329 325 324 323 323 322 322 322 330 327 329 329 333 335 339 338 337 336 335 334 333 333 332 331 339 341 336 333 332 334 340 344 346 342 341 340 339 337 336 338 339 339 341
331 333 326 326 326 325 326 325 323 327 330 328 328 336 339 339 339 337 337 335 333 330 329 329 329 329 331 328 326 326 326 331 328 328 329 329 338 345 349 348 342 338 337 339
331 330 328 327 325 325 326 326 325 326 331 334 331 335 339 340 340 337 335 333 331 328 327 326 326 326 326 325 325 325 325 325 324 324 325 325 325 329 332 337 349 347 344 340
327 329 331 330 327 327 326 324 329 326 328 330 332 343 343 341 338 336 334 331 329 327 326 324 325 326 325 324 324 324 323 323 323 323 322 322 322 323 327 330 332 339 351 350
334 333 335 333 328 327 327 328 330 330 331 330 330 334 339 337 337 335 333 332 330 328 326 325 325 324 321 320 319 319 320 320 322 321 323 322 322 322 321 323 328 332 331 343
336 332 330 328 326 328 332 332 332 331 332 334 334 333 336 335 334 332 330 327 325 321 319 322 324 321 321 319 318 318 318 319 318 317 321 322 322 322 322 321 321 325 333 330
334 333 333 333 332 329 329 330 331 331 334 334 332 333 340 336 333 330 328 325 321 319 317 320 318 318 318 318 318 317 318 318 318 319 319 318 318 321 323 322 321 320 325 330
333 333 333 330 329 329 330 330 327 326 330 330 329 328 327 322 320 320 318 318 319 319 318 317 317 317 318 318 318 318 317 319 319 319 318 319 320 320 320 320 322 321 321 325
333 335 332 333 330 328 326 325 323 323 323 322 322 325 320 318 317 318 317 319 318 318 318 317 317 317 318 319 319 319 320 321 321 320 320 319 318 320 319 319 321 320 324 323
333 331 331 332 330 327 326 325 324 324 323 325 327 323 319 319 319 316 317 318 318 318 318 317 317 318 320 320 320 321 320 320 319 319 319 319 319 320 320 320 320 321 324 323
326 329 329 329 329 330 324 325 326 324 324 323 323 321 319 317 316 316 317 317 318 319 319 318 319 319 319 319 320 319 320 320 319 319 319 318 318 319 319 319 320 323 322 323
325 327 327 328 328 326 325 325 325 326 323 320 320 319 318 317 318 319 318 317 318 317 318 318 317 317 317 317 318 318 320 320 319 319 318 318 318 318 318 317 317 319 321 322
328 326 326 326 330 329 325 321 320 320 324 320 318 318 318 317 318 319 318 318 316 317 316 316 316 316 316 317 318 319 320 320 320 319 319 319 319 318 318 318 317 318 320 320
323 324 325 325 326 326 323 321 320 323 323 319 317 317 318 319 318 317 316 316 316 316 316 316 317 317 317 319 319 319 319 319 319 319 320 319 318 318 319 318 318 317 319 319
325 324 325 325 327 327 321 321 324 319 319 318 317 317 317 317 317 316 315 315 315 315 314 315 316 317 318 317 319 319 318 318 319 319 319 320 319 319 319 319 318 318 319 320
324 325 327 323 324 320 317 317 317 316 318 317 316 316 316 316 316 315 315 314 314 314 314 316 317 317 318 317 315 315 315 315 317 316 318 319 319 318 318 318 318 318 318 319
325 322 320 318 320 319 318 318 318 317 317 316 316 316 316 315 315 316 315 314 314 315 315 316 315 317 316 314 313 312 313 314 315 315 317 317 318 319 319 319 318 318 318 319
319 319 319 319 319 318 319 317 317 317 317 316 315 315 314 315 315 314 312 312 314 315 316 317 316 316 314 312 312 311 312 313 314 316 316 318 318 318 318 318 318 318 318 318
316 319 319 320 318 318 318 316 317 317 317 317 316 315 316 315 312 312 311 312 313 314 316 315 313 314 312 312 311 310 311 311 313 313 314 317 317 317 316 316 317 316 318 318
Wind_Speed
7 2 7 13 13 14 9 8 8 8 8 7 6 4 2 3 2 5 10 12 17 23 20 32 36 39 41 40 42 39 34 35 38 30 31 29 28 24 21 26 22 23 28 24
3 9 14 12 11 12 8 4 8 9 8 4 7 7 5 8 7 6 2 8 8 15 17 21 31 35 41 41 42 38 36 29 36 38 32 31 33 31 25 28 28 21 27 30
9 11 15 14 4 4 3 4 7 8 8 8 6 9 8 9 7 7 7 3 7 8 20 20 22 31 35 40 44 44 39 37 30 35 34 30 26 28 30 26 30 30 26 32
9 14 9 5 4 4 3 9 11 9 3 3 4 5 9 8 11 6 7 8 15 22 13 8 6 13 28 37 41 43 43 41 39 33 35 35 29 26 27 30 31 32 32 32
10 10 7 5 4 5 9 5 5 6 4 5 9 3 9 7 7 8 9 15 17 23 21 20 13 26 12 10 18 35 44 45 44 42 38 41 38 38 36 35 27 37 35 36
9 6 2 1 3 7 6 5 5 5 2 4 8 6 9 7 14 11 12 14 16 18 19 17 27 31 32 29 29 14 26 28 27 36 36 34 35 30 33 36 31 37 39 43
10 10 5 5 4 3 3 5 3 4 2 5 7 1 7 11 15 19 16 15 13 15 16 15 16 21 29 30 26 28 24 22 25 28 27 31 32 28 26 32 31 33 33 37
6 11 12 7 6 6 7 9 5 2 1 1 7 5 4 20 19 19 18 15 16 14 13 13 14 21 25 29 28 27 30 31 21 13 21 27 32 37 42 39 35 36 35 33
4 9 8 10 5 5 4 4 11 1 3 4 2 10 13 17 14 15 16 16 13 12 11 12 19 26 28 31 33 30 30 24 24 20 19 20 18 13 33 39 38 42 46 39
1 4 2 6 6 7 1 3 5 4 2 3 3 4 6 13 14 13 11 12 11 10 13 12 16 25 28 28 26 25 23 22 21 23 23 23 25 25 23 21 31 37 40 43
4 4 8 5 2 3 6 2 1 4 4 3 2 3 2 10 13 14 12 10 9 9 9 8 15 24 27 28 27 24 22 21 19 21 23 27 27 27 28 28 25 20 32 37
1 3 2 6 9 6 5 1 5 5 5 1 3 4 8 13 11 11 10 8 7 8 8 7 14 22 23 23 23 24 24 24 20 22 19 18 24 29 31 29 30 30 29 24
3 1 2 9 7 8 4 6 2 5 3 1 3 4 6 13 10 9 10 10 10 11 10 12 14 17 20 21 21 21 23 22 24 25 23 23 25 24 27 30 31 30 31 32
4 3 3 5 4 3 7 9 5 5 3 4 5 3 9 9 9 11 10 9 9 8 10 9 8 12 18 17 16 17 17 21 23 20 26 29 29 28 27 27 28 32 30 29
4 1 5 6 9 8 8 9 9 6 5 4 4 4 6 8 9 8 8 11 13 11 9 8 7 10 17 18 18 19 22 22 23 24 26 29 27 30 26 31 30 27 30 31
2 1 7 5 8 10 10 11 9 10 10 7 5 11 8 8 9 9 10 12 10 9 8 8 8 14 17 20 23 25 26 28 29 31 30 30 32 29 33 35 30 30 26 30
5 3 3 3 6 10 7 5 7 6 10 2 5 6 8 8 9 8 9 8 7 6 5 6 7 12 19 23 23 22 26 28 28 30 31 30 31 33 34 34 34 34 24 25
3 3 2 3 5 3 8 5 6 18 13 14 12 9 9 7 7 10 8 7 6 6 6 7 15 19 22 25 27 28 27 28 30 29 27 29 30 29 34 33 32 32 28 28
7 5 1 2 3 9 10 6 5 3 6 9 8 8 7 6 2 4 9 7 5 7 11 15 20 22 25 25 27 28 28 28 29 30 31 31 30 31 30 31 32 32 32 33
8 8 5 2 2 4 2 7 10 4 3 6 8 8 9 9 6 5 12 11 12 16 17 20 23 26 25 29 31 28 26 27 27 30 32 30 32 32 32 33 33 33 30 31
4 2 6 4 5 3 4 8 6 1 3 5 8 8 9 5 1 4 7 9 17 16 20 23 22 23 25 28 27 24 26 26 31 33 32 32 32 33 35 36 33 35 35 32
7 6 4 4 5 8 4 5 4 4 2 6 8 6 6 6 7 7 8 6 11 14 18 20 20 20 23 27 27 25 26 31 31 32 33 31 31 32 32 33 35 32 31 29
1 4 5 5 4 7 6 8 7 5 7 6 5 5 3 5 7 8 5 6 10 16 19 19 20 22 21 24 26 25 29 31 30 30 29 29 31 32 33 32 31 30 30 27
5 3 4 5 5 8 7 12 10 8 6 5 5 2 5 6 7 3 3 3 8 15 16 19 20 18 18 26 25 26 29 31 32 30 31 31 29 31 31 29 29 28 27 24
1 3 2 2 6 11 10 9 7 7 7 5 5 6 6 8 4 4 4 6 10 14 17 19 15 18 18 26 27 28 30 31 30 28 31 27 27 27 28 29 31 29 33 30
2 0 2 3 4 6 5 5 9 6 2 3 3 6 8 10 7 10 7 12 11 15 15 16 20 20 23 25 25 27 30 31 29 27 27 25 24 24 25 26 27 30 28 30
Wind_Direction
211 153 217 225 218 231 250 265 270 300 328 23 360 329 258 248 293 277 228 199 181 185 180 174 175 176 176 179 182 183 185 192 194 194 202 209 214 217 222 222 220 213 209 206
298 221 236 232 237 232 262 339 321 316 319 347 310 295 273 296 257 257 218 207 199 190 165 172 174 171 175 180 184 184 192 186 197 200 202 211 217 222 224 224 225 225 220 211
209 241 230 241 294 351 6 312 300 273 305 335 353 331 305 274 241 253 292 152 63 107 170 174 173 173 172 177 183 188 189 196 199 205 203 205 216 227 233 234 234 231 225 216
220 251 218 205 259 297 282 246 245 252 332 284 69 280 284 251 236 234 252 64 72 59 123 78 80 159 178 182 186 190 195 196 201 197 206 212 215 220 226 229 232 234 233 220
252 226 256 270 197 205 233 280 5 2 6 24 315 19 276 306 196 226 89 89 84 84 81 66 89 96 130 175 198 200 201 204 204 203 200 205 208 219 225 230 234 233 234 235
269 283 269 209 253 222 279 7 352 345 25 334 249 180 284 273 103 94 82 87 90 88 88 86 86 81 74 63 59 215 219 213 209 214 214 215 215 216 221 225 230 233 230 231
284 266 220 164 312 269 136 55 347 335 10 211 266 7 220 97 102 111 97 74 76 84 78 80 92 88 84 75 62 51 51 223 220 229 230 236 241 243 240 237 238 242 237 235
253 269 207 163 181 204 182 158 168 239 220 231 296 47 30 76 63 67 68 71 70 69 74 69 67 80 82 78 69 56 47 60 60 254 264 254 247 252 252 248 246 245 244 241
2 333 128 140 175 166 299 159 222 162 296 44 142 76 57 76 75 71 70 63 58 62 71 70 60 62 70 61 52 45 41 44 40 39 28 26 29 330 268 270 252 247 249 248
37 356 109 146 57 335 220 244 21 358 117 261 315 149 160 117 110 92 73 59 50 56 53 56 52 56 55 52 48 41 25 27 24 11 5 1 360 354 353 356 269 255 252 254
66 81 299 24 157 322 329 272 340 128 130 176 344 320 354 113 108 99 82 69 59 54 58 56 55 53 51 42 33 29 23 6 1 353 345 337 336 339 344 344 343 338 275 264
54 114 351 284 307 309 309 345 120 109 304 5 134 284 112 103 106 100 95 92 82 71 69 76 72 71 56 40 24 14 5 355 356 350 342 335 328 328 329 328 332 329 326 319
326 56 34 334 336 12 360 7 37 111 93 218 111 268 88 94 86 92 90 65 57 50 34 40 36 44 43 31 14 359 347 341 341 336 331 330 325 319 316 319 319 321 323 320
58 21 131 198 225 333 321 319 330 131 125 225 210 155 100 60 63 56 56 59 58 48 45 50 35 26 13 2 349 338 327 329 319 326 329 322 317 313 311 311 306 312 314 321
88 74 9 305 305 316 297 305 309 315 234 172 257 63 93 88 75 56 46 39 50 48 38 30 15 359 349 342 338 332 326 330 326 319 316 310 310 306 306 307 298 299 300 305
35 44 25 322 312 301 287 274 278 275 279 277 240 110 117 83 67 45 44 55 46 26 14 3 351 341 333 332 331 330 334 338 339 330 319 312 306 302 305 301 292 296 282 293
125 114 61 272 344 347 312 250 259 246 44 45 96 136 85 68 64 47 72 60 42 17 349 318 312 343 347 346 339 349 337 333 330 321 311 312 315 316 306 299 294 293 276 285
95 81 93 263 335 253 249 345 110 81 46 52 75 70 67 59 40 65 53 44 17 6 10 359 348 344 347 338 339 336 330 327 321 314 310 313 309 305 311 312 316 297 286 281
151 133 174 184 230 286 325 13 359 36 51 33 61 55 50 34 299 132 32 26 16 6 6 0 348 342 334 330 326 323 320 315 313 311 306 307 305 305 303 304 305 303 305 294
158 149 141 183 255 276 75 42 0 23 77 24 49 33 29 17 25 342 358 11 356 341 347 344 337 332 323 323 320 312 310 308 306 309 305 303 304 301 299 296 299 295 293 300
119 150 175 193 216 227 21 36 342 49 186 16 47 45 38 41 353 301 344 323 324 355 350 338 338 324 318 318 323 317 315 310 310 310 305 299 297 294 296 294 293 292 290 286
167 157 198 211 222 241 332 48 81 163 93 73 68 59 40 12 330 304 286 342 5 347 334 323 322 320 324 333 332 328 324 323 319 316 309 299 299 295 292 292 289 287 284 281
160 161 150 137 179 149 103 133 137 97 91 64 68 73 355 291 278 285 27 10 349 336 326 323 328 327 339 345 344 330 326 328 325 322 315 309 303 300 297 291 287 286 288 282
60 21 92 89 124 151 133 87 86 82 70 43 53 329 284 290 301 20 21 6 346 323 318 330 329 334 348 346 343 338 333 331 327 322 319 314 309 305 302 294 288 285 283 278
199 61 75 102 79 91 69 80 83 79 70 46 1 329 316 326 337 311 50 17 340 336 335 339 348 348 356 348 342 342 335 335 331 325 331 325 321 314 312 307 298 292 292 289
46 11 133 158 95 99 95 72 92 80 24 38 316 317 302 317 62 39 16 350 338 336 351 5 356 2 349 341 341 342 343 339 332 331 328 330 332 338 333 327 322 322 315 309